DW7658 Weather Reports


Display with metric or nautical units.
time (UTC)temp
F
wind
direction
speed
MPH
gust
MPH
rain 1hr
in
rain 24hr
in
rain mn
in
humidity
%
barometer
mb
20260904174508 101 124 0.0 3.0 0.00 0.00 0.00 53 1008.7
20260904173020 100 127 0.0 4.0 0.00 0.00 0.00 49 1009.1
20260904171554 101 55 0.0 2.0 0.00 0.00 0.00 49 1009.3
20260904170051 100 106 0.0 3.0 0.00 0.00 0.00 49 1009.3
20260904164532 100 316 0.0 5.0 0.00 0.00 0.00 51 1009.4
20260904163030 101 9 0.0 4.0 0.00 0.00 0.00 53 1009.3
20260904161510 101 129 0.0 3.0 0.00 0.00 0.00 52 1009.4
20260904160006 100 354 0.0 1.0 0.00 0.00 0.00 53 1009.6
20260904154549 99 211 0.0 4.0 0.00 0.00 0.00 53 1009.5
20260904153052 99 256 0.0 1.0 0.00 0.00 0.00 54 1009.4
20260904151526 98 37 0.0 2.0 0.00 0.00 0.00 56 1009.5
20260904150033 98 50 0.0 1.0 0.00 0.00 0.00 58 1009.6
20260904144503 97 311 0.0 1.0 0.00 0.00 0.00 59 1009.6
20260904143101 96 266 0.0 1.0 0.00 0.00 0.00 61 1009.4
20260904141539 94 256 0.0 1.0 0.00 0.00 0.00 65 1009.6
20260904140048 93 50 0.0 1.0 0.00 0.00 0.00 65 1009.5
20260904134514 91 39 0.0 1.0 0.00 0.00 0.00 69 1009.5
20260904133011 89 32 0.0 1.0 0.00 0.00 0.00 73 1009.6
20260904131548 86 307 0.0 1.0 0.00 0.00 0.00 76 1009.6
20260904130045 84 40 0.0 0.0 0.00 0.00 0.00 80 1009.9
20260904124522 81 27 0.0 0.0 0.00 0.00 0.00 84 1009.9
20260904123019 79 27 0.0 0.0 0.00 0.00 0.00 86 1009.9
20260904121601 75 27 0.0 0.0 0.00 0.00 0.00 86 1009.7
20260904120109 72 27 0.0 0.0 0.00 0.00 0.00 87 1009.4
20260904114544 0 0.0 0.0 0.00 0.00 0.00 1009.3
20260904113038 0 0.0 0.0 0.00 0.00 0.00 1009.3
20260904111515 0 0.0 0.0 0.00 0.00 0.00 1009.0
20260904110009 0 0.0 0.0 0.00 0.00 0.00 1008.9
20260904104548 0 0.0 0.0 0.00 0.00 0.00 1008.7
20260904103043 0 0.0 0.0 0.00 0.00 0.00 1008.7
20260904101527 0 0.0 0.0 0.00 0.00 0.00 1008.8
20260904100022 0 0.0 0.0 0.00 0.00 0.00 1008.7
20260904094531 0 0.0 0.0 0.00 0.00 0.00 1008.6
20260904093013 0 0.0 0.0 0.00 0.00 0.00 1008.6
20260904091508 0 0.0 0.0 0.00 0.00 0.00 1008.5
20260904090004 0 0.0 0.0 0.00 0.00 0.00 1008.7
20260904084600 0 0.0 0.0 0.00 0.00 0.00 1008.5
20260904083105 0 0.0 0.0 0.00 0.00 0.00 1008.6
20260904081533 0 0.0 0.0 0.00 0.00 0.00 1008.7
20260904080030 0 0.0 0.0 0.00 0.00 0.00 1008.6
20260904074509 70 27 0.0 0.0 0.00 0.00 0.00 87 1008.6
20260904073006 71 27 0.0 0.0 0.00 0.00 0.00 87 1008.8
20260904071548 72 27 0.0 0.0 0.00 0.00 0.00 87 1008.8
20260904070047 72 27 0.0 0.0 0.00 0.00 0.00 87 1008.8
20260904064537 72 27 0.0 0.0 0.00 0.00 0.00 87 1009.0
20260904063029 72 27 0.0 0.0 0.00 0.00 0.00 87 1009.1
20260904061508 72 27 0.0 0.0 0.00 0.00 0.00 87 1009.1
20260904060008 72 27 0.0 0.0 0.00 0.00 0.00 87 1009.1
20260904054552 72 27 0.0 0.0 0.00 0.00 0.00 87 1009.1
20260904053048 73 27 0.0 0.0 0.00 0.00 0.00 87 1009.2
20260904051530 73 27 0.0 0.0 0.00 0.00 0.00 87 1009.2
20260904050040 73 27 0.0 0.0 0.00 0.00 0.00 87 1009.1
20260904044509 73 27 0.0 0.0 0.00 0.00 0.00 87 1009.1
20260904043010 73 27 0.0 0.0 0.00 0.00 0.00 87 1009.2
20260904041609 74 27 0.0 0.0 0.00 0.00 0.00 87 1009.1
20260904040050 74 27 0.0 0.0 0.00 0.00 0.00 87 1009.1
20260904034549 74 27 0.0 0.0 0.00 0.00 0.00 87 1009.0
20260904033028 75 27 0.0 0.0 0.00 0.00 0.00 87 1008.9
20260904031525 75 27 0.0 0.0 0.00 0.00 0.00 86 1008.9
20260904030005 76 27 0.0 0.0 0.00 0.00 0.00 86 1009.0
20260904024505 76 27 0.0 0.0 0.00 0.00 0.00 86 1009.2
20260904023045 77 27 0.0 0.0 0.00 0.00 0.00 85 1009.3
20260904021551 77 27 0.0 0.0 0.00 0.00 0.00 85 1009.2
20260904020023 78 27 0.0 0.0 0.00 0.00 0.00 84 1009.2
20260904014520 78 27 0.0 0.0 0.00 0.00 0.00 83 1009.3
20260904013001 79 27 0.0 0.0 0.00 0.00 0.00 83 1009.5
20260904011559 80 27 0.0 0.0 0.00 0.00 0.00 82 1009.2
20260904010040 81 27 0.0 0.0 0.00 0.00 0.00 81 1009.1
20260904004538 81 27 0.0 0.0 0.00 0.00 0.00 80 1008.9
20260904003029 82 27 0.0 0.0 0.00 0.00 0.00 78 1008.7
20260904001538 83 27 0.0 0.0 0.00 0.00 0.00 75 1008.5
20260904000025 84 27 0.0 0.0 0.00 0.00 0.00 73 1008.4
20260903234525 86 27 0.0 0.0 0.00 0.00 0.00 70 1008.2
20260903233036 87 27 0.0 0.0 0.00 0.00 0.00 68 1008.2
20260903231524 88 27 0.0 0.0 0.00 0.00 0.00 64 1008.2
20260903230030 89 26 0.0 1.0 0.00 0.00 0.00 64 1008.2
20260903224529 89 276 0.0 1.0 0.00 0.00 0.00 63 1008.2
20260903223006 90 41 0.0 1.0 0.00 0.00 0.00 62 1007.9
20260903221506 91 278 0.0 5.0 0.00 0.00 0.00 60 1007.7
20260903220048 91 32 0.0 2.0 0.00 0.00 0.00 58 1007.5
20260903214547 93 331 0.0 1.0 0.00 0.00 0.00 56 1007.4
20260903213037 95 273 1.0 3.0 0.00 0.00 0.00 53 1007.4
20260903211528 97 287 0.0 1.0 0.00 0.00 0.00 51 1007.4
20260903210010 98 219 0.0 3.0 0.00 0.00 0.00 48 1007.4
20260903204509 97 226 0.0 7.0 0.00 0.00 0.00 49 1007.7
20260903203053 98 108 0.0 3.0 0.00 0.00 0.00 47 1007.8
20260903201545 99 102 0.0 6.0 0.00 0.00 0.00 48 1008.2
20260903200025 99 228 0.0 1.0 0.00 0.00 0.00 48 1008.5
20260903194523 99 315 0.0 5.0 0.00 0.00 0.00 45 1008.7
20260903193008 100 70 0.0 3.0 0.00 0.00 0.00 49 1008.7
20260903191503 100 295 0.0 2.0 0.00 0.00 0.00 47 1008.9
20260903190044 101 295 0.0 1.0 0.00 0.00 0.00 47 1009.1
20260903184549 99 133 0.0 3.0 0.00 0.00 0.00 50 1009.2
20260903183029 99 134 0.0 2.0 0.00 0.00 0.00 51 1009.2
20260903181525 100 93 1.0 3.0 0.00 0.00 0.00 46 1009.4
20260903180005 100 156 1.0 6.0 0.00 0.00 0.00 47 1009.6